Orbital Elements at Epoch 2459000.5 (2020-May-31.0) TDB
Reference: JPL 41 (heliocentric ecliptic J2000)
Element | Value | Uncertainty (1-sigma) | Units |
e | .03763455917809546 | 3.2517e-08 | |
a | 2.613039844887415 | 8.6183e-09 | au |
q | 2.514699242210278 | 8.4232e-08 | au |
i | 8.017015756540948 | 3.362e-06 | deg |
node | 304.527950264317 | 3.0048e-05 | deg |
peri | 18.9790697079657 | 6.2395e-05 | deg |
M | 43.67907233519176 | 5.4571e-05 | deg |
tp | 2458813.307527588646 (2019-Nov-25.80752759) | 0.00023384 | TDB |
period | 1542.827868479992 4.22 | 7.6328e-06 2.09e-08 | d yr |
n | .2333377607151181 | 1.1544e-09 | deg/d |
Q | 2.711380447564552 | 8.9427e-09 | au |
|
| | Orbit Determination Parameters
Additional Information
|